Weather reports worldwide

Advertisment
Koivu-Mankkaa, Finland (2985): temperature & dewpoint: 13.08.2018 22:00:00 - 19.08.2018 22:00:00 (EEST)Koivu-Mankkaa, Finland (2985): wind speed & gusts: 13.08.2018 22:00:00 - 19.08.2018 22:00:00 (EEST)Koivu-Mankkaa, Finland (2985): wind direction: 13.08.2018 22:00:00 - 19.08.2018 22:00:00 (EEST)Koivu-Mankkaa, Finland (2985): reduced air pressure: 13.08.2018 22:00:00 - 19.08.2018 22:00:00 (EEST)Koivu-Mankkaa, Finland (2985): visibility: 13.08.2018 22:00:00 - 19.08.2018 22:00:00 (EEST)Koivu-Mankkaa, Finland (2985): precipitation: 13.08.2018 22:00:00 - 19.08.2018 22:00:00 (EEST)
Date & Time tt [°C] td [°C] ff [km/h] ff [kn] fx [km/h] fx [kn] dd ppp [hPa] vv [km] rr [mm]
19.08.2018 22:00:00 17,2 10,1 14 8 24 13 W 1011,1 - 0,0
19.08.2018 21:00:00 18,6 10,1 15 8 37 20 W 1010,7 - 0,0
19.08.2018 20:00:00 19,9 9,6 22 12 43 23 W 1010,2 43 0,0
19.08.2018 19:00:00 20,6 10,4 23 12 41 22 W 1009,7 39 0,0
19.08.2018 18:00:00 21,7 9,7 22 12 43 23 W 1009,4 48 0,0
19.08.2018 17:00:00 22,5 11,7 24 13 44 24 SW 1009,1 36 0,0
19.08.2018 16:00:00 22,0 10,8 32 17 48 26 SW 1008,8 31 0,0
19.08.2018 15:00:00 21,7 10,6 26 14 46 25 W 1008,6 42 0,0
19.08.2018 14:00:00 22,8 13,5 22 12 41 22 SW 1008,9 39 0,0
19.08.2018 13:00:00 20,5 14,3 18 10 44 24 W 1009,0 43 0,0
19.08.2018 12:00:00 20,3 14,9 19 10 40 21 WSW 1009,0 38 0,0
19.08.2018 11:00:00 18,8 16,2 24 13 43 23 WSW 1009,1 39 0,0
19.08.2018 10:00:00 18,2 16,4 22 12 39 21 SW 1009,1 23 0,0
19.08.2018 09:00:00 17,4 16,4 18 10 33 18 SW 1009,4 26 0,2
19.08.2018 08:00:00 17,2 16,6 19 10 31 17 SW 1009,8 10 2,9
19.08.2018 07:00:00 16,6 15,6 13 7 42 23 SSW 1010,2 18 0,5
19.08.2018 06:00:00 17,2 16,3 21 11 38 21 SW 1010,4 - 1,8
19.08.2018 05:00:00 17,6 16,0 15 8 39 21 SSW 1010,7 - 0,1
19.08.2018 04:00:00 18,1 14,9 19 10 32 18 SSW 1011,2 - 0,0
19.08.2018 03:00:00 17,1 13,7 17 9 32 17 SSW 1011,8 - 0,0
19.08.2018 02:00:00 17,0 13,2 17 9 27 15 SW 1012,3 - 0,0
19.08.2018 01:00:00 15,3 13,2 13 7 21 12 SSW 1012,7 - 0,0
19.08.2018 00:00:00 14,6 12,8 12 7 19 11 SSW 1013,0 - 0,0
18.08.2018 23:00:00 16,6 13,4 11 6 24 13 SW 1013,2 - 0,0
18.08.2018 22:00:00 17,3 12,7 14 7 22 12 SW 1013,3 - 0,0
18.08.2018 21:00:00 17,9 13,9 12 7 26 14 S 1013,3 - 0,0
18.08.2018 20:00:00 19,4 14,9 14 8 24 13 S 1013,5 33 0,0
18.08.2018 19:00:00 20,0 15,5 12 7 27 15 S 1013,6 40 0,0
18.08.2018 18:00:00 22,6 15,4 15 8 29 16 SSW 1013,9 44 0,0
18.08.2018 17:00:00 23,7 15,2 18 10 31 17 SW 1014,1 41 0,0
18.08.2018 16:00:00 23,9 15,7 16 9 35 19 SW 1014,5 38 0,0
18.08.2018 15:00:00 24,6 15,1 23 13 42 23 SW 1015,1 33 0,0
18.08.2018 14:00:00 22,7 17,6 14 8 30 16 SSW 1015,4 37 0,0
18.08.2018 13:00:00 22,8 16,9 21 12 36 19 SSW 1015,4 37 0,0
18.08.2018 12:00:00 22,2 17,3 17 9 28 15 S 1015,5 41 0,0
18.08.2018 11:00:00 22,1 17,0 10 5 27 15 S 1015,5 46 0,0
18.08.2018 10:00:00 20,4 16,8 14 7 26 14 S 1015,7 40 0,0
18.08.2018 09:00:00 20,3 16,8 14 8 29 16 SSW 1015,6 40 0,0
18.08.2018 08:00:00 19,2 17,0 14 8 23 13 S 1015,6 38 0,0
18.08.2018 07:00:00 17,7 16,7 13 7 21 12 S 1015,6 30 0,0
18.08.2018 06:00:00 17,2 15,9 12 6 23 12 SSW 1015,7 35 0,0
18.08.2018 05:00:00 16,7 15,8 13 7 19 10 S 1015,8 - 0,0
18.08.2018 04:00:00 17,9 15,3 13 7 21 12 S 1015,9 - 0,0
18.08.2018 03:00:00 16,9 15,8 11 6 20 11 S 1016,2 50 0,0
18.08.2018 02:00:00 16,6 15,7 11 6 19 10 S 1016,5 - 0,0
18.08.2018 01:00:00 15,1 14,5 13 7 17 9 S 1016,8 - 0,0
18.08.2018 00:00:00 14,9 14,3 10 5 16 9 SSE 1017,1 - 0,0
17.08.2018 23:00:00 15,7 14,9 9 5 11 6 SSW 1017,1 - 0,0
17.08.2018 22:00:00 16,8 15,4 8 4 17 9 SSW 1017,0 - 0,0
17.08.2018 21:00:00 18,6 15,9 10 6 15 8 SSE 1017,0 - 0,0
17.08.2018 20:00:00 20,8 16,0 8 5 19 10 SSE 1017,2 39 0,0
17.08.2018 19:00:00 21,2 16,1 14 8 22 12 SSE 1017,7 39 0,0
17.08.2018 18:00:00 21,8 15,8 13 7 27 14 SE 1018,0 36 0,0
17.08.2018 17:00:00 22,9 14,8 13 7 24 13 SE 1018,2 37 0,0
17.08.2018 16:00:00 23,6 14,9 13 7 23 12 SSE 1018,8 36 0,0
17.08.2018 15:00:00 23,4 14,6 14 8 33 18 S 1019,3 38 0,0
17.08.2018 14:00:00 21,7 15,2 19 10 32 17 S 1019,5 39 0,0
17.08.2018 13:00:00 21,1 15,8 15 8 29 15 S 1019,6 38 0,0
17.08.2018 12:00:00 21,0 15,5 13 7 27 14 S 1019,8 42 0,0
17.08.2018 11:00:00 20,3 14,7 15 8 26 14 S 1019,9 47 0,0
17.08.2018 10:00:00 19,3 15,9 16 9 28 15 S 1019,9 48 0,0
17.08.2018 09:00:00 18,3 15,5 14 8 24 13 S 1019,7 43 0,0
17.08.2018 08:00:00 17,0 16,7 12 7 22 12 S 1019,6 36 0,0
17.08.2018 07:00:00 11,9 11,7 11 6 16 9 S 1019,7 26 0,0
17.08.2018 06:00:00 11,0 10,7 10 5 14 8 S 1019,7 - 0,0
17.08.2018 05:00:00 11,2 11,0 11 6 14 7 S 1019,7 - 0,0
17.08.2018 04:00:00 11,4 11,1 11 6 14 8 S 1019,7 - 0,0
17.08.2018 03:00:00 11,8 11,5 11 6 16 8 S 1019,7 - 0,0
17.08.2018 02:00:00 12,1 11,8 9 5 13 7 S 1019,8 - 0,0
17.08.2018 01:00:00 12,8 12,5 10 5 13 7 S 1019,7 - 0,0
17.08.2018 00:00:00 13,8 13,4 11 6 13 7 S 1019,4 - 0,0
16.08.2018 23:00:00 14,2 13,4 9 5 15 8 S 1019,4 - 0,0
16.08.2018 22:00:00 15,1 13,4 11 6 17 9 S 1019,3 - 0,0
16.08.2018 21:00:00 16,6 13,3 11 6 21 12 S 1019,2 - 0,0
16.08.2018 20:00:00 18,3 13,1 11 6 26 14 S 1019,0 49 0,0
16.08.2018 19:00:00 18,7 12,5 12 7 24 13 S 1019,1 37 0,0
16.08.2018 18:00:00 19,5 13,4 10 5 27 14 SSE 1019,1 42 0,0
16.08.2018 17:00:00 20,6 11,5 17 9 29 16 S 1019,0 37 0,0
16.08.2018 16:00:00 21,2 13,8 13 7 28 15 S 1019,0 32 0,0
16.08.2018 15:00:00 21,3 15,5 13 7 24 13 S 1018,9 34 0,0
16.08.2018 14:00:00 20,2 15,2 12 6 24 13 SSE 1018,7 30 0,0
16.08.2018 13:00:00 20,7 15,3 12 6 24 13 SSE 1018,6 43 0,0
16.08.2018 12:00:00 19,3 14,7 9 5 24 13 S 1018,5 39 0,0
16.08.2018 11:00:00 19,2 14,9 9 5 22 12 SSE 1018,2 42 0,0
16.08.2018 10:00:00 18,4 14,7 13 7 19 10 S 1017,9 36 0,0
16.08.2018 09:00:00 17,2 13,9 9 5 14 7 SSW 1017,4 44 0,0
16.08.2018 08:00:00 12,8 12,5 3 1 5 3 SSE 1017,0 33 0,0
16.08.2018 07:00:00 10,2 10,0 3 2 3 2 E 1016,7 19 0,0
16.08.2018 06:00:00 9,5 9,3 3 1 5 3 N 1016,3 - 0,0
16.08.2018 05:00:00 9,7 9,4 3 2 6 4 WNW 1015,9 - 0,0
16.08.2018 04:00:00 10,2 10,0 3 2 8 5 NE 1015,5 - 0,0
16.08.2018 03:00:00 10,6 10,3 5 3 10 6 NNE 1015,4 - 0,0
16.08.2018 02:00:00 11,4 11,0 3 2 9 5 NW 1015,3 - 0,0
16.08.2018 01:00:00 12,2 11,5 6 4 9 5 WNW 1014,8 - 0,0
16.08.2018 00:00:00 12,6 11,6 3 1 4 2 SW 1014,1 - 0,0
15.08.2018 23:00:00 13,9 11,9 0 0 4 2 N 1013,6 - 0,0
15.08.2018 22:00:00 15,7 12,1 0 0 9 5 N 1013,2 - 0,0
15.08.2018 21:00:00 17,2 11,6 6 4 10 6 N 1012,7 - 0,0
15.08.2018 20:00:00 18,0 11,6 9 5 14 8 N 1012,3 43 0,0
15.08.2018 19:00:00 18,8 11,3 11 6 20 11 NNE 1012,0 39 0,0
15.08.2018 18:00:00 18,7 12,6 7 4 18 10 NNW 1011,9 37 0,0
15.08.2018 17:00:00 19,0 12,1 10 5 21 12 N 1011,5 38 0,0
15.08.2018 16:00:00 18,7 11,9 10 6 20 11 N 1011,0 43 0,0
15.08.2018 15:00:00 18,0 13,9 12 6 19 11 NNW 1010,6 24 0,1
15.08.2018 14:00:00 19,1 13,9 8 4 18 10 SE 1010,0 35 0,0
15.08.2018 13:00:00 19,3 13,3 12 6 22 12 SE 1009,4 40 0,0
15.08.2018 12:00:00 19,7 14,2 11 6 21 11 SE 1009,3 37 0,0
15.08.2018 11:00:00 19,2 13,4 9 5 21 12 SE 1008,9 36 0,0
15.08.2018 10:00:00 19,0 12,9 8 4 14 8 E 1008,8 36 0,0
15.08.2018 09:00:00 17,8 13,6 6 4 14 8 ENE 1008,6 34 0,0
15.08.2018 08:00:00 15,9 13,4 8 5 14 7 NE 1008,8 32 0,0
15.08.2018 07:00:00 15,2 13,0 4 2 7 4 NNE 1008,8 40 0,0
15.08.2018 06:00:00 14,5 13,4 5 3 11 6 SE 1008,7 - 0,0
15.08.2018 05:00:00 14,5 13,4 6 3 14 8 ESE 1008,6 - 0,0
15.08.2018 04:00:00 15,6 13,4 10 6 15 8 SE 1008,8 - 0,0
15.08.2018 03:00:00 16,1 13,1 9 5 17 9 ESE 1009,2 - 0,0
15.08.2018 02:00:00 15,7 12,7 10 5 20 11 E 1009,5 - 0,0
15.08.2018 01:00:00 15,9 12,7 6 4 15 8 ESE 1010,0 - 0,0
15.08.2018 00:00:00 15,5 13,0 9 5 14 8 ESE 1010,4 - 0,0
14.08.2018 23:00:00 15,6 13,5 5 3 11 6 ESE 1010,5 - 0,0
14.08.2018 22:00:00 16,0 13,5 9 5 13 7 SE 1010,6 - 0,0
14.08.2018 21:00:00 16,6 12,0 8 4 13 7 SSE 1010,5 - 0,0
14.08.2018 20:00:00 17,6 12,5 8 4 14 8 S 1010,5 41 0,0
14.08.2018 19:00:00 18,2 12,8 8 4 18 10 S 1010,7 40 0,0
14.08.2018 18:00:00 19,1 12,3 10 6 29 16 S 1011,0 41 0,0
14.08.2018 17:00:00 19,9 11,2 19 10 32 17 S 1011,2 34 0,0
14.08.2018 16:00:00 19,5 11,1 18 10 38 21 S 1011,5 40 0,0
14.08.2018 15:00:00 19,4 11,7 23 13 40 22 S 1011,7 37 0,0
14.08.2018 14:00:00 19,5 11,7 20 11 36 19 S 1011,6 31 0,0
14.08.2018 13:00:00 18,0 10,2 21 11 36 20 S 1011,7 40 0,0
14.08.2018 12:00:00 19,0 8,7 19 11 35 19 S 1011,6 40 0,0
14.08.2018 11:00:00 18,0 9,7 18 10 29 16 S 1011,7 39 0,0
14.08.2018 10:00:00 16,9 9,9 12 7 22 12 S 1011,7 42 0,0
14.08.2018 09:00:00 16,0 9,1 8 4 14 7 NW 1011,4 45 0,0
14.08.2018 08:00:00 12,7 9,7 3 2 9 5 W 1011,4 34 0,0
14.08.2018 07:00:00 9,7 8,9 6 3 11 6 W 1011,3 36 0,0
14.08.2018 06:00:00 8,9 8,3 9 5 10 6 WSW 1011,1 - 0,0
14.08.2018 05:00:00 9,5 8,4 8 4 13 7 WSW 1010,8 - 0,0
14.08.2018 04:00:00 10,6 8,6 9 5 14 8 W 1010,6 - 0,0
14.08.2018 03:00:00 13,3 8,6 11 6 18 10 W 1010,3 - 0,0
14.08.2018 02:00:00 14,3 8,5 11 6 18 10 W 1009,9 - 0,0
14.08.2018 01:00:00 14,1 8,4 9 5 16 9 W 1009,6 - 0,0
14.08.2018 00:00:00 14,5 7,9 13 7 18 10 W 1009,3 - 0,0
13.08.2018 23:00:00 15,1 7,6 10 5 18 10 W 1009,1 - 0,0
13.08.2018 22:00:00 15,3 7,2 6 4 26 14 W 1008,8 - 0,0

tt = temperature
td = dewpoint
ff = wind speed
fx = gusts
dd = wind direction
ppp = reduced air pressure
vv = visibility
rr = precipitation

Next stations